Columbus, NE

12:18 PM CST on November 21, 2017 (GMT -0600)
Columbus Municipal

Weather History for KOLU - November, 2013

Change the Weather History Date:

Monday, November 25, 2013

  Actual Average Record
Temperature  
Mean Temperature 35 °F -  
Max Temperature 46 °F 42 °F 79 °F (1960)
Min Temperature 24 °F 24 °F 0 °F (1993)
Degree Days  
Heating Degree Days 30    
Moisture  
Dew Point 19 °F    
Average Humidity 60    
Maximum Humidity 75    
Minimum Humidity 39    
Precipitation  
Precipitation 0.00 in - - ()
Sea Level Pressure  
Sea Level Pressure 30.14 in    
Wind  
Wind Speed 11 mph (West)    
Max Wind Speed 17 mph    
Max Gust Speed 24 mph    
Visibility 10 miles    
Events      
Averages and records for this station are not official NWS values.
T = Trace of Precipitation, MM = Missing Value Source: NWS Daily Summary

Daily Weather History Graph

Daily Weather History Graph

Search for Another Location

Airport or City:

Trip Planner

Search our weather history database for the weather conditions in past years. The results will help you decide how hot, cold, wet, or windy it might be!

Date:

Astronomy

Nov. 25, 2013 Rise Set
Actual Time 7:29 AM CST 5:02 PM CST
Civil Twilight 6:59 AM CST 5:33 PM CST
Nautical Twilight 6:25 AM CST 6:07 PM CST
Astronomical Twilight 5:52 AM CST 6:40 PM CST
Moon No Moon Rise 12:44 PM CST (11/25)
Length of Visible Light 10h 33m
Length of Day
9h 32m
Waning Gibbous, 51% of the Moon is Illuminated
Nov 25
Waning Gibbous
Nov 25
Last Quarter
Dec 2
New
Dec 9
First Quarter
Dec 17
Full

Hourly Weather History & Observations

Time (CST) Temp. Windchill Dew Point Humidity Pressure Visibility Wind Dir Wind Speed Gust Speed Precip Events Conditions
12:15 AM 26.6 °F 15.2 °F 12.2 °F 55% 30.15 in 10.0 mi SSW 13.8 mph 23.0 mph N/A   Scattered Clouds
12:35 AM 26.6 °F 14.3 °F 12.2 °F 55% 30.14 in 10.0 mi SSW 16.1 mph 24.2 mph N/A   Mostly Cloudy
12:55 AM 26.6 °F 14.7 °F 12.2 °F 55% 30.13 in 10.0 mi South 15.0 mph 20.7 mph N/A   Overcast
1:15 AM 26.6 °F 16.2 °F 12.2 °F 55% 30.12 in 10.0 mi South 11.5 mph 23.0 mph N/A   Partly Cloudy
1:35 AM 26.6 °F 15.7 °F 12.2 °F 55% 30.12 in 10.0 mi South 12.7 mph - N/A   Partly Cloudy
1:55 AM 26.6 °F 14.7 °F 12.2 °F 55% 30.12 in 10.0 mi SSW 15.0 mph 19.6 mph N/A   Clear
2:15 AM 24.8 °F 13.4 °F 12.2 °F 59% 30.11 in 10.0 mi South 12.7 mph - N/A   Clear
2:35 AM 24.8 °F 14.0 °F 12.2 °F 59% 30.11 in 10.0 mi South 11.5 mph - N/A   Clear
2:55 AM 24.8 °F 13.4 °F 12.2 °F 59% 30.10 in 10.0 mi SSW 12.7 mph 17.3 mph N/A   Clear
3:15 AM 24.8 °F 14.6 °F 14.0 °F 64% 30.10 in 10.0 mi SSW 10.4 mph - N/A   Clear
3:35 AM 24.8 °F 14.0 °F 14.0 °F 64% 30.09 in 10.0 mi SSW 11.5 mph - N/A   Clear
3:55 AM 24.8 °F 17.9 °F 14.0 °F 64% 30.09 in 10.0 mi SW 5.8 mph - N/A   Clear
4:15 AM 24.8 °F 15.3 °F 15.8 °F 69% 30.09 in 10.0 mi SSW 9.2 mph - N/A   Clear
4:35 AM 26.6 °F 18.2 °F 15.8 °F 64% 30.09 in 10.0 mi SSW 8.1 mph - N/A   Clear
4:55 AM 26.6 °F 16.8 °F 15.8 °F 64% 30.09 in 10.0 mi SSW 10.4 mph - N/A   Clear
5:15 AM 24.8 °F 15.3 °F 15.8 °F 69% 30.09 in 10.0 mi SSW 9.2 mph - N/A   Clear
5:35 AM 24.8 °F 15.3 °F 15.8 °F 69% 30.09 in 10.0 mi SSW 9.2 mph - N/A   Clear
5:55 AM 24.8 °F 14.6 °F 15.8 °F 69% 30.09 in 10.0 mi SSW 10.4 mph 16.1 mph N/A   Clear
6:15 AM 24.8 °F 14.6 °F 15.8 °F 69% 30.09 in 10.0 mi SSW 10.4 mph - N/A   Clear
6:35 AM 24.8 °F 14.0 °F 17.6 °F 74% 30.09 in 10.0 mi SSW 11.5 mph - N/A   Scattered Clouds
6:55 AM 26.6 °F 16.2 °F 17.6 °F 69% 30.10 in 10.0 mi SSW 11.5 mph - N/A   Mostly Cloudy
7:15 AM 26.6 °F 16.8 °F 17.6 °F 69% 30.10 in 10.0 mi SSW 10.4 mph - N/A   Overcast
7:35 AM 26.6 °F 16.2 °F 19.4 °F 74% 30.11 in 10.0 mi SW 11.5 mph - N/A   Mostly Cloudy
7:55 AM 26.6 °F 17.5 °F 19.4 °F 74% 30.11 in 10.0 mi SW 9.2 mph - N/A   Partly Cloudy
8:15 AM 26.6 °F 18.2 °F 19.4 °F 74% 30.11 in 10.0 mi SW 8.1 mph - N/A   Partly Cloudy
8:35 AM 28.4 °F 19.7 °F 19.4 °F 69% 30.12 in 10.0 mi SW 9.2 mph - N/A   Mostly Cloudy
8:55 AM 30.2 °F 21.9 °F 21.2 °F 69% 30.12 in 10.0 mi SW 9.2 mph - N/A   Overcast
9:15 AM 30.2 °F 20.8 °F 23.0 °F 75% 30.13 in 10.0 mi WSW 11.5 mph - N/A   Scattered Clouds
9:35 AM 32.0 °F 22.5 °F 24.8 °F 75% 30.13 in 10.0 mi WSW 12.7 mph - N/A   Clear
9:55 AM 33.8 °F 24.3 °F 24.8 °F 70% 30.13 in 10.0 mi West 13.8 mph - N/A   Clear
10:15 AM 35.6 °F 27.5 °F 24.8 °F 65% 30.14 in 10.0 mi West 11.5 mph - N/A   Clear
10:35 AM 37.4 °F 31.4 °F 24.8 °F 60% 30.14 in 10.0 mi West 8.1 mph - N/A   Clear
10:55 AM 39.2 °F 33.0 °F 26.6 °F 61% 30.14 in 10.0 mi WNW 9.2 mph - N/A   Clear
11:15 AM 39.2 °F 31.2 °F 24.8 °F 56% 30.13 in 10.0 mi NW 13.8 mph 17.3 mph N/A   Clear
11:35 AM 42.8 °F 35.1 °F 24.8 °F 49% 30.13 in 10.0 mi NW 16.1 mph 23.0 mph N/A   Clear
11:55 AM 42.8 °F 35.4 °F 24.8 °F 49% 30.13 in 10.0 mi NW 15.0 mph - N/A   Clear
12:15 PM 42.8 °F 35.8 °F 24.8 °F 49% 30.13 in 10.0 mi NW 13.8 mph - N/A   Clear
12:35 PM 44.6 °F 37.4 °F 24.8 °F 46% 30.13 in 10.0 mi NW 16.1 mph - N/A   Clear
12:55 PM 44.6 °F 38.1 °F 24.8 °F 46% 30.13 in 10.0 mi NW 13.8 mph - N/A   Clear
1:15 PM 46.4 °F 40.4 °F 23.0 °F 40% 30.13 in 10.0 mi NW 13.8 mph 18.4 mph N/A   Clear
1:35 PM 46.4 °F 39.8 °F 23.0 °F 40% 30.12 in 10.0 mi NW 16.1 mph 20.7 mph N/A   Clear
1:55 PM 46.4 °F 40.4 °F 23.0 °F 40% 30.12 in 10.0 mi NNW 13.8 mph 20.7 mph N/A   Clear
2:15 PM 46.4 °F 41.1 °F 23.0 °F 40% 30.12 in 10.0 mi NNW 11.5 mph 17.3 mph N/A   Clear
2:35 PM 46.4 °F 40.4 °F 23.0 °F 40% 30.12 in 10.0 mi NW 13.8 mph - N/A   Clear
2:55 PM 46.4 °F 40.4 °F 23.0 °F 40% 30.13 in 10.0 mi NW 13.8 mph - N/A   Clear
3:15 PM 44.6 °F 38.4 °F 21.2 °F 39% 30.13 in 10.0 mi NW 12.7 mph - N/A   Clear
3:35 PM 44.6 °F 38.8 °F 23.0 °F 43% 30.13 in 10.0 mi NNW 11.5 mph - N/A   Clear
3:55 PM 44.6 °F 37.8 °F 23.0 °F 43% 30.14 in 10.0 mi NW 15.0 mph - N/A   Clear
4:15 PM 42.8 °F 34.8 °F 21.2 °F 42% 30.14 in 10.0 mi NW 17.3 mph - N/A   Clear
4:35 PM 42.8 °F 35.4 °F 21.2 °F 42% 30.15 in 10.0 mi NNW 15.0 mph 21.9 mph N/A   Clear
4:55 PM 39.2 °F 31.6 °F 21.2 °F 49% 30.16 in 10.0 mi NW 12.7 mph - N/A   Clear
5:15 PM 37.4 °F 29.8 °F 21.2 °F 52% 30.16 in 10.0 mi NW 11.5 mph - N/A   Clear
5:35 PM 35.6 °F 27.5 °F 21.2 °F 56% 30.17 in 10.0 mi NW 11.5 mph - N/A   Clear
5:55 PM 33.8 °F 27.0 °F 19.4 °F 56% 30.17 in 10.0 mi NW 8.1 mph - N/A   Clear
6:15 PM 33.8 °F 28.6 °F 19.4 °F 56% 30.18 in 10.0 mi NNW 5.8 mph - N/A   Clear
6:35 PM 32.0 °F 28.7 °F 19.4 °F 60% 30.18 in 10.0 mi NNW 3.5 mph - N/A   Clear
6:55 PM 30.2 °F - 19.4 °F 64% 30.19 in 10.0 mi Calm Calm - N/A   Clear
7:15 PM 33.8 °F - 21.2 °F 60% 30.19 in 10.0 mi Calm Calm - N/A   Clear
7:35 PM 30.2 °F 25.4 °F 19.4 °F 64% 30.19 in 10.0 mi West 4.6 mph - N/A   Clear
7:55 PM 30.2 °F 25.4 °F 19.4 °F 64% 30.19 in 10.0 mi NW 4.6 mph - N/A   Clear
8:15 PM 30.2 °F 25.4 °F 19.4 °F 64% 30.19 in 10.0 mi WNW 4.6 mph - N/A   Clear
8:35 PM 32.0 °F 27.5 °F 21.2 °F 64% 30.20 in 10.0 mi West 4.6 mph - N/A   Clear
8:55 PM 32.0 °F 25.6 °F 21.2 °F 64% 30.20 in 10.0 mi WNW 6.9 mph - N/A   Clear
9:15 PM 30.2 °F 25.4 °F 19.4 °F 64% 30.20 in 10.0 mi West 4.6 mph - N/A   Clear
9:35 PM 28.4 °F 23.3 °F 17.6 °F 64% 30.20 in 10.0 mi WNW 4.6 mph - N/A   Clear
9:55 PM 28.4 °F 23.3 °F 19.4 °F 69% 30.20 in 10.0 mi West 4.6 mph - N/A   Clear
10:15 PM 30.2 °F 25.4 °F 21.2 °F 69% 30.21 in 10.0 mi West 4.6 mph - N/A   Clear
10:35 PM 28.4 °F 23.3 °F 21.2 °F 74% 30.21 in 10.0 mi West 4.6 mph - N/A   Clear
10:55 PM 28.4 °F 22.2 °F 21.2 °F 74% 30.21 in 10.0 mi West 5.8 mph - N/A   Clear
11:15 PM 28.4 °F 22.2 °F 21.2 °F 74% 30.21 in 10.0 mi West 5.8 mph - N/A   Clear
11:35 PM 28.4 °F 22.2 °F 19.4 °F 69% 30.22 in 10.0 mi West 5.8 mph - N/A   Clear
11:55 PM 28.4 °F 22.2 °F 19.4 °F 69% 30.22 in 10.0 mi WNW 5.8 mph - N/A   Clear